Location: Haliburton Scout Reserve
(45.0900°N, 78.3200°W)
Time: 13:56:22
(UTC-05:00)

Transit 2A - Visible Passes

Search period start: 07 February 2023 00:00
Search period end: 17 February 2023 00:00
Orbit: 593 x 963 km, 66.7° (Epoch: 07 February)

Date Brightness Start Highest point End Pass type
(mag) Time Alt. Az. Time Alt. Az. Time Alt. Az.
07 Feb 8.7 19:20:37 10° NNW 19:21:34 10° NNW 19:22:32 10° N visible
08 Feb 8.5 18:44:18 10° NW 18:46:31 12° NNW 18:48:51 10° N visible
09 Feb 8.4 18:08:30 10° WNW 18:11:32 15° NNW 18:14:44 10° N visible
12 Feb 8.6 18:11:05 10° NNW 18:12:07 10° NNW 18:13:09 10° N visible
12 Feb 9.0 21:39:55 10° N 21:40:03 10° N 21:40:03 10° N visible
13 Feb 8.7 21:05:39 10° N 21:06:32 12° N 21:06:32 12° N visible
14 Feb 8.6 20:31:27 10° N 20:33:02 12° NNE 20:33:02 12° NNE visible
14 Feb 9.1 22:13:24 10° NNW 22:13:29 10° NNW 22:13:29 10° NNW visible
15 Feb 8.5 19:57:26 10° N 19:59:08 11° NNE 19:59:32 11° NNE visible
15 Feb 8.8 21:39:00 10° NNW 21:40:00 14° NNW 21:40:00 14° NNW visible
16 Feb 8.4 21:04:38 10° NNW 21:06:30 17° N 21:06:30 17° N visible
